Home   Weather   Madison   Past weeks

Flag for USA Past Weather in Madison, Wisconsin, USA — Yesterday and Last 2 Weeks

Now
42 °F

Partly sunny.


Feels Like: 39 °F
Forecast: 33 / 55 °F
Wind: 5 mph from Northwest

Location: Dane County Regional-Truax Field

Current Time: Apr 28, 2017 at 11:14:30 am

Latest Report: Apr 28, 2017 at 9:53 am


Visibility: 10 mi

Pressure: 29.94 "Hg

Humidity: 62%

Dew Point: 30 °F

Location of MadisonLocation

Past Weather in Madison — Graph

°F

Madison Temperature Yesterday

Maximum temperature yesterday: 47 °F (at 12:53 am)
Minimum temperature yesterday: 36 °F (at 9:53 am)
Average temperature yesterday: 41 °F

High & Low Weather Summary for the Past Weeks

 TemperatureHumidityPressure
High76 °F (Apr 15, 2:53 pm)97% (Apr 15, 12:04 am)30.35 "Hg (Apr 15, 12:04 am)
Low32 °F (Apr 28, 5:53 am)19% (Apr 24, 6:53 pm)29.35 "Hg (Apr 26, 9:53 am)
Average54 °F68%29.90 "Hg
* Reported Apr 13 9:53 am — Apr 28 9:53 am, Madison, Weather by CustomWeather, © 2017

Note: Actual official high and low records may vary slightly from our data, if they occured in-between our weather recording intervals... More about our weather records

Advertising

Madison Weather History for the Previous 24 Hours

Scroll right to see more
 ConditionsComfort  
Time TempWeatherWind HumidityBarometerVisibility
9:53 am
Fri, Apr 28
42 °FPartly sunny.5 mph62%29.94 "Hg10 mi
8:53 am39 °FScattered clouds.6 mph67%29.95 "Hg10 mi
8:23 am37 °FScattered clouds.3 mph76%29.92 "Hg10 mi
7:53 am37 °FPartly sunny.No wind76%29.93 "Hg10 mi
6:53 am35 °FPartly sunny.No wind82%29.91 "Hg10 mi
6:18 am34 °FPartly sunny.3 mph82%29.88 "Hg10 mi
5:53 am32 °FPassing clouds.No wind92%29.88 "Hg10 mi
4:53 am35 °FClear.No wind78%29.88 "Hg10 mi
3:53 am36 °FClear.5 mph75%29.87 "Hg10 mi
3:44 am36 °FPassing clouds.7 mph75%29.85 "Hg10 mi
1:53 am38 °FOvercast.6 mph73%29.85 "Hg10 mi
12:53 am39 °FOvercast.5 mph67%29.83 "Hg10 mi
11:53 pm
Thu, Apr 27
39 °FOvercast.6 mph67%29.83 "Hg10 mi
10:53 pm38 °FOvercast.10 mph70%29.81 "Hg10 mi
9:53 pm39 °FOvercast.8 mph70%29.79 "Hg10 mi
8:53 pm40 °FOvercast.8 mph70%29.75 "Hg10 mi
8:13 pm40 °FMostly cloudy.10 mph70%29.71 "Hg10 mi
7:53 pm41 °FMostly cloudy.12 mph67%29.72 "Hg10 mi
6:53 pm41 °FMore clouds than sun.9 mph74%29.70 "Hg10 mi
6:34 pm41 °FMore clouds than sun.13 mph74%29.67 "Hg10 mi
5:53 pm41 °FMostly cloudy.9 mph76%29.67 "Hg10 mi
4:53 pm43 °FMore clouds than sun.13 mph71%29.64 "Hg10 mi
3:53 pm44 °FMore clouds than sun.10 mph71%29.62 "Hg10 mi
3:15 pm43 °FOvercast.8 mph76%29.59 "Hg10 mi
2:53 pm42 °FLight rain. Cloudy.6 mph79%29.60 "Hg9 mi
2:20 pm42 °FMore clouds than sun.8 mph76%29.57 "Hg10 mi
1:53 pm40 °FMostly cloudy.8 mph83%29.57 "Hg10 mi
12:53 pm40 °FMostly cloudy.7 mph80%29.56 "Hg10 mi
12:20 pm38 °FOvercast.7 mph90%29.53 "Hg9 mi
11:53 am38 °FOvercast.7 mph90%29.53 "Hg10 mi
11:27 am37 °FLight rain. Mostly cloudy.8 mph89%29.51 "Hg10 mi
11:02 am36 °FLight rain. Mostly cloudy.10 mph92%29.51 "Hg8 mi
Weather by CustomWeather, © 2017

See weather overviewHow to use our weather pages